Home   Weather   Paradise   Past weeks

Flag for USA Past Weather in Paradise, California, USA — Yesterday and Last 2 Weeks

Now
75 °F

Sunny.


Feels Like: 77 °F
Forecast: 69 / 88 °F
Wind: No wind

Location: Chico Municipal

Current Time: Sep 26, 2016 at 10:22:21 AM

Latest Report: Sep 26, 2016 at 9:50 AM


Visibility: 40 mi

Pressure: 30.06 "Hg (28.29 "Hg at 527m altitude)

Humidity: 31%

Dew Point: 43 °F

Location of ParadiseLocation

Past Weather in Paradise — Graph

°F

Paradise Temperature Yesterday

Maximum temperature yesterday: 100 °F (at 2:47 PM)
Minimum temperature yesterday: 63 °F (at 4:55 AM)
Average temperature yesterday: 78 °F

High & Low Weather Summary for the Past Weeks

 TemperatureHumidityPressure
High100 °F (Sep 25, 2:47 PM)88% (Sep 12, 6:50 AM)30.16 "Hg (Sep 12, 6:50 AM)
Low50 °F (Sep 23, 6:55 AM)8% (Sep 25, 11:47 AM)29.75 "Hg (Sep 12, 4:52 PM)
Average72 °F36%29.95 "Hg
* Reported Sep 11 8:50 AM — Sep 26 8:46 AM, Paradise, Weather by CustomWeather, © 2016

Note: Actual official high and low records may vary slightly from our data, if they occured in-between our weather recording intervals... More about our weather records

Advertising

Paradise Weather History for the Previous 24 Hours

Scroll right to see more
 ConditionsComfort  
Time TempWeatherWind HumidityBarometerVisibility
8:46 AM
Mon, Sep 26
68 °FSunny.No wind40%30.05 "Hg40 mi
7:45 AM63 °FSunny.7 mph39%30.04 "Hg40 mi
6:49 AM66 °FClear.No wind32%30.02 "Hg40 mi
5:35 AM66 °FClear.No wind30%30.00 "Hg10 mi
5:15 AM66 °FClear.No wind28%29.99 "Hg10 mi
4:55 AM66 °FClear.No wind30%29.99 "Hg10 mi
4:15 AM66 °FClear.3 mph32%29.98 "Hg10 mi
3:55 AM66 °FClear.No wind35%29.98 "Hg10 mi
3:35 AM64 °FClear.No wind37%29.98 "Hg10 mi
3:15 AM66 °FClear.5 mph32%29.98 "Hg10 mi
2:55 AM66 °FClear.5 mph30%29.98 "Hg10 mi
2:35 AM68 °FClear.3 mph26%29.98 "Hg7 mi
2:15 AM72 °FClear.No wind25%29.98 "Hg10 mi
1:55 AM73 °FClear.5 mph22%29.98 "Hg10 mi
1:35 AM73 °FClear.3 mph22%29.98 "Hg10 mi
1:15 AM73 °FClear.6 mph23%29.99 "Hg10 mi
12:55 AM73 °FClear.6 mph25%29.98 "Hg10 mi
12:35 AM75 °FClear.No wind24%29.99 "Hg10 mi
12:15 AM73 °FClear.7 mph25%29.99 "Hg10 mi
11:55 PM
Sun, Sep 25
75 °FClear.No wind24%29.99 "Hg10 mi
11:35 PM75 °FClear.3 mph25%29.99 "Hg10 mi
11:15 PM77 °FClear.5 mph24%29.99 "Hg10 mi
10:55 PM77 °FClear.7 mph24%29.98 "Hg10 mi
10:15 PM81 °FClear.3 mph23%29.98 "Hg10 mi
9:55 PM81 °FClear.No wind23%29.98 "Hg10 mi
9:35 PM82 °FClear.3 mph26%29.98 "Hg10 mi
9:15 PM84 °FClear.5 mph25%29.98 "Hg10 mi
8:55 PM84 °FClear.3 mph25%29.98 "Hg10 mi
8:15 PM86 °FClear.12 mph24%29.97 "Hg10 mi
7:55 PM88 °FClear.9 mph24%29.97 "Hg10 mi
7:35 PM91 °FClear.13 mph18%29.96 "Hg10 mi
7:15 PM95 °FClear.3 mph11%29.95 "Hg10 mi
6:55 PM95 °FSunny.No wind11%29.95 "Hg10 mi
6:35 PM99 °FSunny.9 mph10%29.94 "Hg10 mi
6:15 PM99 °FSunny.13 mph10%29.94 "Hg10 mi
5:55 PM100 °FSunny.12 mph9%29.95 "Hg10 mi
3:49 PM100 °FSunny.14 mph8%29.98 "Hg40 mi
2:47 PM100 °FSunny.17 mph8%30.00 "Hg40 mi
1:47 PM99 °FSunny.16 mph8%30.03 "Hg40 mi
12:45 PM95 °FSunny.17 mph9%30.06 "Hg40 mi
11:47 AM93 °FSunny.12 mph8%30.09 "Hg40 mi
10:45 AM84 °FPleasantly warm.8 mph13%30.11 "HgN/A
Weather by CustomWeather, © 2016

See weather overviewHow to use our weather pages